This is the latest recevied weather packets stored in our database for station/object IZ7XUV. If no packets are shown the sender has not sent any weather packets the latest 10 day(s).
| Time | Temp. | Humidity | Pressure | Rain* | Wind** | Luminosity | Snow |
|---|---|---|---|---|---|---|---|
| 1778201419 | 16.11° C | 59% | 1013.6 hPa | 0 mm | - | 0 W/m² | - |
| 1778194830 | 16.11° C | 58% | 1014.7 hPa | 0 mm | - | 0 W/m² | - |
| 1778190072 | 16.11° C | 60% | 1014.7 hPa | 0 mm | - | 0 W/m² | - |
| 1778187022 | 17.22° C | 53% | 1014.9 hPa | 0 mm | - | 0 W/m² | - |
| 1778182264 | 17.78° C | 52% | 1015.2 hPa | 0 mm | - | 0 W/m² | - |
| 1778181654 | 17.78° C | 51% | 1015.2 hPa | 0 mm | - | 0 W/m² | - |
| 1778178055 | 18.89° C | 44% | 1014.8 hPa | 0 mm | - | 0 W/m² | - |
| 1778176225 | 19.44° C | 42% | 1014.7 hPa | 0 mm | - | 4 W/m² | - |
| 1778161218 | 23.33° C | 46% | 1014.7 hPa | 0 mm | - | 298 W/m² | - |
| 1778160080 | 23.33° C | 50% | 1014.6 hPa | 0 mm | - | 516 W/m² | - |
| 1778158230 | 23.33° C | 57% | 1014.8 hPa | 0 mm | - | 328 W/m² | - |
| 1778157620 | 23.33° C | 58% | 1015.1 hPa | 0 mm | - | 355 W/m² | - |
| 1778153473 | 22.78° C | 61% | 1015.2 hPa | 0 mm | - | 610 W/m² | - |
| 1778152862 | 22.22° C | 62% | 1015.4 hPa | 0 mm | - | 665 W/m² | - |
| 1778151662 | 22.22° C | 63% | 1015.5 hPa | 0 mm | - | 345 W/m² | - |
| 1778150422 | 21.67° C | 64% | 1015.3 hPa | 0 mm | - | 709 W/m² | - |
| 1778149528 | 21.67° C | 66% | 1015.3 hPa | 0 mm | - | 720 W/m² | - |
| 1778148918 | 21.67° C | 67% | 1015.5 hPa | 0 mm | - | 720 W/m² | - |
| 1778145318 | 20.56° C | 74% | 1015 hPa | 0 mm | - | 664 W/m² | - |
| 1778142350 | 18.89° C | 79% | 1014.5 hPa | 0 mm | - | 236 W/m² | - |
| 1778139951 | 18.33° C | 81% | 1015 hPa | 0 mm | - | 153 W/m² | - |
| 1778138121 | 17.22° C | 84% | 1015.5 hPa | 0 mm | - | 301 W/m² | - |
| 1778136352 | 16.11° C | 91% | 1015.2 hPa | 0 mm | - | 122 W/m² | - |
| 1778135762 | 16.11° C | 92% | 1015.2 hPa | 0.25 mm | - | 115 W/m² | - |
| 1778135132 | 16.11° C | 93% | 1015.3 hPa | 0.25 mm | - | 94 W/m² | - |
* Rain latest hour (hover to see other rain measurements)
** Current wind speed in m/s (hover to see current wind gust speed)